Weather History for Point Hope, AK

Change the Weather History Date:

Wednesday, July 24, 2013

  Actual Average Record
Temperature  
Mean Temperature 45 °F -  
Max Temperature 48 °F 47 °F 68 °F (2005)
Min Temperature 42 °F 41 °F 37 °F (2003)
Degree Days  
Heating Degree Days 20    
Moisture  
Dew Point 38 °F    
Average Humidity 77    
Maximum Humidity 81    
Minimum Humidity 71    
Precipitation  
Precipitation 0.00 in - - ()
Sea Level Pressure  
Sea Level Pressure 30.19 in    
Wind  
Wind Speed 13 mph (WNW)    
Max Wind Speed 17 mph    
Max Gust Speed -    
Visibility 10 miles    
Events      
Averages and records for this station are not official NWS values.
T = Trace of Precipitation, MM = Missing Value Source: NWS Daily Summary

Daily Weather History Graph

Daily Weather History Graph

Search for Another Location

Airport:

Trip Planner

Search our weather history database for the weather conditions in past years. The results will help you decide how hot, cold, wet, or windy it might be!

Date:

Astronomy

Jul. 24, 2013 Rise Set
Actual Time 4:28 AM AKDT 1:52 AM AKDT
Civil Twilight Sun does not rise Sun does not rise
Nautical Twilight Sun does not rise Sun does not rise
Astronomical Twilight Sun does not rise Sun does not rise
Moon 12:11 AM AKDT (7/24) 9:40 AM AKDT (7/24)
Length of Visible Light 24h 00m
Length of Day
21h 23m
Waning Gibbous, 94% of the Moon is Illuminated
Jul 24
Waning Gibbous
Jul 29
Last Quarter
Aug 6
New
Aug 14
First Quarter
Aug 20
Full

Hourly Weather History & Observations

Time (AKDT) Temp. Windchill Dew Point Humidity Pressure Visibility Wind Dir Wind Speed Gust Speed Precip Events Conditions
12:16 AM 42.8 °F 36.6 °F 37.4 °F 81% 30.17 in 10.0 mi NW 11.5 mph - N/A   Overcast
12:36 AM 42.8 °F 36.6 °F 35.6 °F 76% 30.17 in 10.0 mi NW 11.5 mph - N/A   Overcast
12:56 AM 42.8 °F 36.6 °F 35.6 °F 76% 30.17 in 10.0 mi NW 11.5 mph - N/A   Overcast
1:16 AM 42.8 °F 36.2 °F 37.4 °F 81% 30.18 in 10.0 mi NW 12.7 mph - N/A   Overcast
1:36 AM 42.8 °F 36.2 °F 37.4 °F 81% 30.18 in 10.0 mi NW 12.7 mph - N/A   Overcast
1:56 AM 42.8 °F 35.8 °F 35.6 °F 76% 30.18 in 10.0 mi NW 13.8 mph - N/A   Overcast
2:16 AM 42.8 °F 36.2 °F 35.6 °F 76% 30.18 in 10.0 mi NW 12.7 mph - N/A   Overcast
2:36 AM 42.8 °F 36.6 °F 35.6 °F 76% 30.18 in 10.0 mi NW 11.5 mph - N/A   Overcast
2:56 AM 42.8 °F 36.2 °F 35.6 °F 76% 30.18 in 10.0 mi NW 12.7 mph - N/A   Overcast
3:16 AM 42.8 °F 35.8 °F 35.6 °F 76% 30.18 in 10.0 mi NW 13.8 mph - N/A   Overcast
3:36 AM 42.8 °F 35.8 °F 35.6 °F 76% 30.18 in 10.0 mi NW 13.8 mph - N/A   Overcast
3:56 AM 42.8 °F 36.2 °F 35.6 °F 76% 30.18 in 10.0 mi NW 12.7 mph - N/A   Overcast
4:16 AM 42.8 °F 36.2 °F 37.4 °F 81% 30.18 in 10.0 mi NW 12.7 mph - N/A   Overcast
4:36 AM 42.8 °F 36.6 °F 35.6 °F 76% 30.18 in 10.0 mi NW 11.5 mph - N/A   Overcast
4:56 AM 42.8 °F - 37.4 °F 81% - 10.0 mi North - - N/A   Overcast
5:16 AM 42.8 °F 36.6 °F 37.4 °F 81% 30.18 in 10.0 mi NW 11.5 mph - N/A   Overcast
5:36 AM 42.8 °F 35.8 °F 37.4 °F 81% 30.18 in 10.0 mi NW 13.8 mph - N/A   Overcast
5:56 AM 42.8 °F 35.8 °F 37.4 °F 81% 30.18 in 10.0 mi NW 13.8 mph - N/A   Overcast
6:16 AM 42.8 °F 36.2 °F 37.4 °F 81% 30.18 in 10.0 mi NW 12.7 mph - N/A   Overcast
6:36 AM 42.8 °F 35.4 °F 37.4 °F 81% 30.18 in 10.0 mi WNW 15.0 mph - N/A   Overcast
6:56 AM 42.8 °F 35.1 °F 37.4 °F 81% 30.18 in 10.0 mi WNW 16.1 mph - N/A   Overcast
7:16 AM 42.8 °F 35.4 °F 37.4 °F 81% 30.18 in 10.0 mi WNW 15.0 mph - N/A   Overcast
7:56 AM 42.8 °F 35.8 °F 37.4 °F 81% 30.18 in 10.0 mi WNW 13.8 mph - N/A   Overcast
8:16 AM 44.6 °F 37.8 °F 37.4 °F 76% 30.18 in 10.0 mi WNW 15.0 mph - N/A   Overcast
8:36 AM 44.6 °F 37.8 °F 37.4 °F 76% 30.18 in 10.0 mi WNW 15.0 mph - N/A   Overcast
8:56 AM 44.6 °F 37.8 °F 37.4 °F 76% 30.18 in 10.0 mi WNW 15.0 mph - N/A   Overcast
9:16 AM 44.6 °F 38.4 °F 37.4 °F 76% 30.18 in 10.0 mi WNW 12.7 mph - N/A   Overcast
9:36 AM 44.6 °F 37.2 °F 37.4 °F 76% 30.18 in 10.0 mi WNW 17.3 mph - N/A   Scattered Clouds
9:56 AM 44.6 °F 37.4 °F 39.2 °F 81% 30.18 in 10.0 mi WNW 16.1 mph - N/A   Scattered Clouds
10:16 AM 44.6 °F 37.8 °F 39.2 °F 81% 30.19 in 10.0 mi WNW 15.0 mph - N/A   Partly Cloudy
10:36 AM 44.6 °F 37.8 °F 39.2 °F 81% 30.19 in 10.0 mi WNW 15.0 mph - N/A   Clear
10:56 AM 44.6 °F 37.8 °F 37.4 °F 76% 30.19 in 10.0 mi WNW 15.0 mph - N/A   Clear
11:16 AM 44.6 °F 38.1 °F 39.2 °F 81% 30.19 in 10.0 mi WNW 13.8 mph - N/A   Partly Cloudy
11:36 AM 44.6 °F 38.1 °F 39.2 °F 81% 30.20 in 10.0 mi WNW 13.8 mph - N/A   Scattered Clouds
11:56 AM 46.4 °F 40.4 °F 39.2 °F 76% 30.20 in 10.0 mi WNW 13.8 mph - N/A   Scattered Clouds
12:16 PM 46.4 °F 40.1 °F 39.2 °F 76% 30.20 in 10.0 mi WNW 15.0 mph - N/A   Partly Cloudy
12:56 PM 46.4 °F 40.1 °F 39.2 °F 76% 30.21 in 10.0 mi WNW 15.0 mph - N/A   Partly Cloudy
1:16 PM 46.4 °F 40.1 °F 39.2 °F 76% 30.21 in 10.0 mi WNW 15.0 mph - N/A   Partly Cloudy
1:36 PM 46.4 °F 40.4 °F 39.2 °F 76% 30.21 in 10.0 mi WNW 13.8 mph - N/A   Clear
1:56 PM 46.4 °F 40.1 °F 39.2 °F 76% 30.21 in 10.0 mi WNW 15.0 mph - N/A   Partly Cloudy
2:16 PM 46.4 °F 40.1 °F 39.2 °F 76% 30.21 in 10.0 mi WNW 15.0 mph - N/A   Clear
2:36 PM 46.4 °F 40.1 °F 39.2 °F 76% 30.21 in 10.0 mi WNW 15.0 mph - N/A   Clear
2:56 PM 46.4 °F 40.7 °F 39.2 °F 76% 30.21 in 10.0 mi WNW 12.7 mph - N/A   Clear
3:16 PM 46.4 °F 40.4 °F 39.2 °F 76% 30.21 in 10.0 mi WNW 13.8 mph - N/A   Clear
3:56 PM 48.2 °F - 39.2 °F 71% 30.21 in 10.0 mi WNW 15.0 mph - N/A   Clear
4:16 PM 48.2 °F - 39.2 °F 71% 30.21 in 10.0 mi WNW 16.1 mph - N/A   Clear
4:36 PM 48.2 °F - 39.2 °F 71% 30.21 in 10.0 mi WNW 16.1 mph - N/A   Clear
4:56 PM 48.2 °F - 39.2 °F 71% 30.21 in 10.0 mi WNW 16.1 mph - N/A   Clear
5:16 PM 48.2 °F - 39.2 °F 71% 30.21 in 10.0 mi WNW 15.0 mph - N/A   Clear
5:36 PM 48.2 °F - 39.2 °F 71% 30.21 in 10.0 mi WNW 16.1 mph - N/A   Clear
5:56 PM 48.2 °F - 39.2 °F 71% 30.20 in 10.0 mi NW 16.1 mph - N/A   Partly Cloudy
6:16 PM 46.4 °F 40.4 °F 39.2 °F 76% 30.21 in 10.0 mi WNW 13.8 mph - N/A   Mostly Cloudy
6:36 PM 46.4 °F 40.4 °F 39.2 °F 76% 30.21 in 10.0 mi NW 13.8 mph - N/A   Overcast
6:56 PM 46.4 °F 40.4 °F 39.2 °F 76% 30.21 in 10.0 mi WNW 13.8 mph - N/A   Overcast
7:16 PM 46.4 °F 40.7 °F 39.2 °F 76% 30.21 in 10.0 mi WNW 12.7 mph - N/A   Overcast
7:36 PM 46.4 °F 40.4 °F 39.2 °F 76% 30.21 in 10.0 mi WNW 13.8 mph - N/A   Overcast
7:56 PM 46.4 °F 40.4 °F 39.2 °F 76% 30.21 in 10.0 mi WNW 13.8 mph - N/A   Mostly Cloudy
8:16 PM 46.4 °F 40.4 °F 39.2 °F 76% 30.21 in 10.0 mi WNW 13.8 mph - N/A   Partly Cloudy
8:36 PM 46.4 °F 40.7 °F 39.2 °F 76% 30.21 in 10.0 mi WNW 12.7 mph - N/A   Clear
8:56 PM 46.4 °F 40.7 °F 39.2 °F 76% 30.21 in 10.0 mi WNW 12.7 mph - N/A   Clear
9:16 PM 46.4 °F 41.1 °F 39.2 °F 76% 30.21 in 10.0 mi WNW 11.5 mph - N/A   Clear
9:36 PM 46.4 °F 41.5 °F 39.2 °F 76% 30.21 in 10.0 mi WNW 10.4 mph - N/A   Clear
9:56 PM 46.4 °F 40.7 °F 39.2 °F 76% 30.21 in 10.0 mi WNW 12.7 mph - N/A   Clear
10:16 PM 46.4 °F 41.5 °F 39.2 °F 76% 30.21 in 10.0 mi WNW 10.4 mph - N/A   Clear
10:36 PM 46.4 °F 41.5 °F 39.2 °F 76% 30.21 in 10.0 mi WNW 10.4 mph - N/A   Clear
10:56 PM 46.4 °F 41.1 °F 39.2 °F 76% 30.21 in 10.0 mi WNW 11.5 mph - N/A   Clear
11:16 PM 44.6 °F 39.2 °F 39.2 °F 81% 30.20 in 10.0 mi WNW 10.4 mph - N/A   Clear
11:36 PM 44.6 °F 40.7 °F 39.2 °F 81% 30.20 in 10.0 mi WNW 6.9 mph - N/A   Clear
11:56 PM 44.6 °F 40.2 °F 39.2 °F 81% 30.20 in 10.0 mi WNW 8.1 mph - N/A   Clear